sat.trackr.live / text

‹ back to catalog

STARLINK-1557

NORAD 46034 · 2020-055H

PAYLOAD ACTIVE UNKNOWN

§ Identity

Operator
Country
US
Launch date
2020-08-07
Launch site
AFETR
Launch vehicle
Mass (kg)
RCS (m²)

Purposes: comms

External: N2YO · Heavens-Above · Gunter

§ Orbital elements

Epoch: 2026-09-19T20:10:18.552000Z

Period
94.01 min
Inclination
53.1608°
Eccentricity
0.0001363
Mean motion
15.31695902 rev/d
Perigee alt
469.8 km
Apogee alt
471.7 km
Semi-major
6,848.9 km
B*
-2.2314e-5
RAAN
303.9404°
Arg perigee
96.7781°
Mean anomaly
263.3375°
Rev number
33,860

§ Raw data

STARLINK-15571 46034U 20055H   26262.84049250 -.00001057  00000+0 -22314-4 0  99992 46034  53.1608 303.9404 0001363  96.7781 263.3375 15.31695902338606

JSON: /api/v1/satellites/46034 · /tle

For live sub-satellite position, see the globe view (requires WebGL).

§ Visibility from observer

Set your observer location to see the next 7 days of passes ≥ 10°. The values pass through the URL so the page stays shareable.

No JS? Fill the form by hand. The geolocation button needs JavaScript.